datetime,pool elevation
1977-12-01,4866.1001
1977-12-02,4866.1001
1977-12-03,4866.1001
1977-12-04,4866.2002
1977-12-05,4866.2002
1977-12-06,4866.2002
1977-12-07,4866.2002
1977-12-08,4866.29981
1977-12-09,4866.29981
1977-12-10,4866.3999
1977-12-11,4866.3999
1977-12-12,4866.5
1977-12-13,4866.5
1977-12-14,4866.5
1977-12-15,4866.6001
1977-12-16,4866.7002
1977-12-17,4866.7002
1977-12-18,4866.79981
1977-12-19,4866.79981
1977-12-20,4866.79981
1977-12-21,4866.8999
1977-12-22,4866.90479
1977-12-23,4867.0
1977-12-24,4867.0
1977-12-25,4867.1001
1977-12-26,4867.1001
1977-12-27,4867.2002
1977-12-28,4867.2002
1977-12-29,4867.29981
1977-12-30,4867.29981
1977-12-31,4867.3999
1978-01-01,4867.3999
1978-01-02,4867.3999
1978-01-03,4867.5
1978-01-04,4867.5
1978-01-05,4867.6001
1978-01-06,4867.6001
1978-01-07,4867.6001
1978-01-08,4867.7002
1978-01-09,4867.7002
1978-01-10,4867.7002
1978-01-11,4867.79981
1978-01-12,4867.79981
1978-01-13,4867.79981
1978-01-14,4867.8999
1978-01-15,4867.8999
1978-01-16,4868.0
1978-01-17,4868.0
1978-01-18,4868.1001
1978-01-19,4868.1001
1978-01-20,4868.1001
1978-01-21,4868.2002
1978-01-22,4868.2002
1978-01-23,4868.2002
1978-01-24,4868.2002
1978-01-25,4868.2002
1978-01-26,4868.1001
1978-01-27,4867.8999
1978-01-28,4867.7002
1978-01-29,4867.6001
1978-01-30,4867.3999
1978-01-31,4867.3999
1978-02-01,4867.3999
1978-02-02,4867.5
1978-02-03,4867.5
1978-02-04,4867.6001
1978-02-05,4867.6001
1978-02-06,4867.7002
1978-02-07,4867.79981
1978-02-08,4867.8999
1978-02-09,4868.0
1978-02-10,4868.1001
1978-02-11,4868.2002
1978-02-12,4868.2002
1978-02-13,4868.29981
1978-02-14,4868.3999
1978-02-15,4868.3999
1978-02-16,4868.3999
1978-02-17,4868.3999
1978-02-18,4868.3999
1978-02-19,4868.3999
1978-02-20,4868.5
1978-02-21,4868.5
1978-02-22,4868.5
1978-02-23,4868.5
1978-02-24,4868.5
1978-02-25,4868.5
1978-02-26,4868.5
1978-02-27,4868.5
1978-02-28,4868.5
1978-03-01,4868.6001
1978-03-02,4868.6001
1978-03-03,4868.7002
1978-03-04,4868.8999
1978-03-05,4869.2002
1978-03-06,4869.3999
1978-03-07,4869.6001
1978-03-08,4869.79981
1978-03-09,4869.8999
1978-03-10,4870.1001
1978-03-11,4870.29981
1978-03-12,4870.5
1978-03-13,4870.7002
1978-03-14,4870.79981
1978-03-15,4871.0
1978-03-16,4871.1001
1978-03-17,4871.2002
1978-03-18,4871.3999
1978-03-19,4871.5
1978-03-20,4871.8999
1978-03-21,4872.5
1978-03-22,4873.3999
1978-03-23,4874.3999
1978-03-24,4875.3999
1978-03-25,4876.0
1978-03-26,4876.7002
1978-03-27,4877.3999
1978-03-28,4878.1001
1978-03-29,4878.8999
1978-03-30,4879.79981
1978-03-31,4881.2002
1978-04-01,4882.5
1978-04-02,4883.6001
1978-04-03,4884.29981
1978-04-04,4885.1001
1978-04-05,4885.79981
1978-04-06,4886.3999
1978-04-07,4887.2002
1978-04-08,4888.0
1978-04-09,4888.79981
1978-04-10,4889.5
1978-04-11,4890.29981
1978-04-12,4890.8999
1978-04-13,4891.6001
1978-04-14,4892.2002
1978-04-15,4892.7002
1978-04-16,4893.29981
1978-04-17,4893.6001
1978-04-18,4893.8999
1978-04-19,4894.0
1978-04-20,4894.0
1978-04-21,4894.1001
1978-04-22,4894.1001
1978-04-23,4894.1001
1978-04-24,4894.0
1978-04-25,4893.5
1978-04-26,4894.1001
1978-04-27,4894.2002
1978-04-28,4894.29981
1978-04-29,4894.29981
1978-04-30,4894.3999
1978-05-01,4894.3999
1978-05-02,4894.5
1978-05-03,4894.6001
1978-05-04,4894.6001
1978-05-05,4894.3999
1978-05-06,4894.1001
1978-05-07,4893.7002
1978-05-08,4893.7002
1978-05-09,4893.6001
1978-05-10,4893.5
1978-05-11,4893.3999
1978-05-12,4893.29981
1978-05-13,4893.2002
1978-05-14,4893.2002
1978-05-15,4893.6001
1978-05-16,4894.0
1978-05-17,4894.5
1978-05-18,4894.8999
1978-05-19,4895.29981
1978-05-20,4895.6001
1978-05-21,4896.0
1978-05-22,4896.5
1978-05-23,4897.1001
1978-05-24,4897.5
1978-05-25,4898.0
1978-05-26,4898.3999
1978-05-27,4898.6001
1978-05-28,4898.8999
1978-05-29,4899.2002
1978-05-30,4899.6001
1978-05-31,4899.8999
1978-06-01,4900.0
1978-06-02,4900.0
1978-06-03,4900.0
1978-06-04,4900.0
1978-06-05,4900.0
1978-06-06,4900.0
1978-06-07,4900.0
1978-06-08,4900.0
1978-06-09,4900.0
1978-06-10,4900.0
1978-06-11,4900.0
1978-06-12,4900.0
1978-06-13,4900.0
1978-06-14,4900.0
1978-06-15,4900.0
1978-06-16,4900.0
1978-06-17,4900.0
1978-06-18,4900.0
1978-06-19,4900.0
1978-06-20,4900.0
1978-06-21,4900.0
1978-06-22,4900.0
1978-06-23,4900.0
1978-06-24,4900.0
1978-06-25,4899.8999
1978-06-26,4899.8999
1978-06-27,4899.79981
1978-06-28,4899.79981
1978-06-29,4899.7002
1978-06-30,4899.6001
1978-07-01,4899.6001
1978-07-02,4899.5
1978-07-03,4899.3999
1978-07-04,4899.29981
1978-07-05,4899.1001
1978-07-06,4898.8999
1978-07-07,4898.7002
1978-07-08,4898.3999
1978-07-09,4898.1001
1978-07-10,4897.8999
1978-07-11,4897.6001
1978-07-12,4897.3999
1978-07-13,4897.2002
1978-07-14,4896.8999
1978-07-15,4896.7002
1978-07-16,4896.5
1978-07-17,4896.2002
1978-07-18,4896.0
1978-07-19,4895.7002
1978-07-20,4895.5
1978-07-21,4895.2002
1978-07-22,4895.0
1978-07-23,4894.7002
1978-07-24,4894.5
1978-07-25,4894.29981
1978-07-26,4894.0
1978-07-27,4893.7002
1978-07-28,4893.3999
1978-07-29,4893.2002
1978-07-30,4892.8999
1978-07-31,4892.6001
1978-08-01,4892.3999
1978-08-02,4892.1001
1978-08-03,4891.79981
1978-08-04,4891.5
1978-08-05,4891.1001
1978-08-06,4890.79981
1978-08-07,4890.5
1978-08-08,4890.1001
1978-08-09,4889.79981
1978-08-10,4889.6001
1978-08-11,4889.5
1978-08-12,4889.3999
1978-08-13,4889.3999
1978-08-14,4889.3999
1978-08-15,4889.3999
1978-08-16,4889.3999
1978-08-17,4889.29981
1978-08-18,4889.29981
1978-08-19,4889.29981
1978-08-20,4889.2002
1978-08-21,4889.2002
1978-08-22,4889.0
1978-08-23,4888.79981
1978-08-24,4888.5
1978-08-25,4888.29981
1978-08-26,4888.1001
1978-08-27,4887.8999
1978-08-28,4887.7002
1978-08-29,4887.5
1978-08-30,4887.29981
1978-08-31,4887.1001
1978-09-01,4887.0
1978-09-02,4886.79981
1978-09-03,4886.6001
1978-09-04,4886.3999
1978-09-05,4886.2002
1978-09-06,4886.1001
1978-09-07,4886.0
1978-09-08,4885.79981
1978-09-09,4885.7002
1978-09-10,4885.6001
1978-09-11,4885.5
1978-09-12,4885.5
1978-09-13,4885.5
1978-09-14,4885.3999
1978-09-15,4885.29981
1978-09-16,4885.29981
1978-09-17,4885.3999
1978-09-18,4885.3999
1978-09-19,4885.3999
1978-09-20,4885.3999
1978-09-21,4885.3999
1978-09-22,4885.3999
1978-09-23,4885.29981
1978-09-24,4885.29981
1978-09-25,4885.29981
1978-09-26,4885.2002
1978-09-27,4885.2002
1978-09-28,4885.1001
1978-09-29,4885.0
1978-09-30,4885.0
1978-10-01,4884.9
1978-10-02,4884.9
1978-10-03,4884.8
1978-10-04,4884.8
1978-10-05,4884.8
1978-10-06,4884.7
1978-10-07,4884.7
1978-10-08,4884.6
1978-10-09,4884.6
1978-10-10,4884.6
1978-10-11,4884.5
1978-10-12,4884.5
1978-10-13,4884.5
1978-10-14,4884.4
1978-10-15,4884.4
1978-10-16,4884.4
1978-10-17,4884.3
1978-10-18,4884.3
1978-10-19,4884.3
1978-10-20,4884.3
1978-10-21,4884.3
1978-10-22,4884.2
1978-10-23,4884.2
1978-10-24,4884.2
1978-10-25,4884.2
1978-10-26,4884.2
1978-10-27,4884.2
1978-10-28,4884.1
1978-10-29,4884.1
1978-10-30,4884.1
1978-10-31,4884.1
1978-11-01,4884.1
1978-11-02,4884.2
1978-11-03,4884.2
1978-11-04,4884.2
1978-11-05,4884.1
1978-11-06,4884.1
1978-11-07,4884.1
1978-11-08,4884.1
1978-11-09,4884.1
1978-11-10,4884.1
1978-11-11,4884.1
1978-11-12,4884.1
1978-11-13,4884.1
1978-11-14,4884.1
1978-11-15,4884.1
1978-11-16,4884.1
1978-11-17,4884.0
1978-11-18,4883.9
1978-11-19,4883.8
1978-11-20,4883.6
1978-11-21,4883.5
1978-11-22,4883.3
1978-11-23,4883.2
1978-11-24,4883.0
1978-11-25,4882.9
1978-11-26,4882.8
1978-11-27,4882.7
1978-11-28,4882.6
1978-11-29,4882.5
1978-11-30,4882.4
1978-12-01,4882.3
1978-12-02,4882.2
1978-12-03,4882.1
1978-12-04,4882.0
1978-12-05,4882.0
1978-12-06,4881.9
1978-12-07,4881.8
1978-12-08,4881.7
1978-12-09,4881.6
1978-12-10,4881.5
1978-12-11,4881.4
1978-12-12,4881.4
1978-12-13,4881.3
1978-12-14,4881.2
1978-12-15,4881.1
1978-12-16,4881.0
1978-12-17,4880.9
1978-12-18,4880.8
1978-12-19,4880.7
1978-12-20,4880.5
1978-12-21,4880.4
1978-12-22,4880.3
1978-12-23,4880.1
1978-12-24,4880.0
1978-12-25,4879.9
1978-12-26,4879.7
1978-12-27,4879.6
1978-12-28,4879.5
1978-12-29,4879.4
1978-12-30,4879.3
1978-12-31,4879.2
1979-01-01,4879.1
1979-01-02,4879.0
1979-01-03,4878.9
1979-01-04,4878.8
1979-01-05,4878.7
1979-01-06,4878.6
1979-01-07,4878.5
1979-01-08,4878.4
1979-01-09,4878.3
1979-01-10,4878.2
1979-01-11,4878.2
1979-01-12,4878.1
1979-01-13,4878.0
1979-01-14,4877.9
1979-01-15,4877.8
1979-01-16,4877.7
1979-01-17,4877.6
1979-01-18,4877.5
1979-01-19,4877.4
1979-01-20,4877.4
1979-01-21,4877.3
1979-01-22,4877.25
1979-01-23,4877.1
1979-01-24,4877.0
1979-01-25,4876.9
1979-01-26,4876.9
1979-01-27,4876.8
1979-01-28,4876.7
1979-01-29,4876.6
1979-01-30,4876.5
1979-01-31,4876.5
1979-02-01,4876.4
1979-02-02,4876.3
1979-02-03,4876.1
1979-02-04,4875.9
1979-02-05,4875.7
1979-02-06,4875.6
1979-02-07,4875.4
1979-02-08,4875.3
1979-02-09,4875.2
1979-02-10,4875.1
1979-02-11,4875.0
1979-02-12,4874.9
1979-02-13,4874.9
1979-02-14,4875.0
1979-02-15,4874.9
1979-02-16,4874.8
1979-02-17,4874.8
1979-02-18,4874.7
1979-02-19,4874.7
1979-02-20,4874.6
1979-02-21,4874.5
1979-02-22,4874.4
1979-02-23,4874.4
1979-02-24,4874.3
1979-02-25,4874.3
1979-02-26,4874.2
1979-02-27,4874.1
1979-02-28,4874.1
1979-03-01,
1979-03-02,
1979-03-03,
1979-03-04,
1979-03-05,
1979-03-06,
1979-03-07,
1979-03-08,
1979-03-09,
1979-03-10,
1979-03-11,
1979-03-12,
1979-03-13,
1979-03-14,
1979-03-15,
1979-03-16,
1979-03-17,
1979-03-18,
1979-03-19,
1979-03-20,
1979-03-21,
1979-03-22,
1979-03-23,
1979-03-24,
1979-03-25,
1979-03-26,
1979-03-27,
1979-03-28,
1979-03-29,
1979-03-30,
1979-03-31,
1979-04-01,
1979-04-02,
1979-04-03,
1979-04-04,
1979-04-05,
1979-04-06,
1979-04-07,
1979-04-08,
1979-04-09,
1979-04-10,
1979-04-11,
1979-04-12,
1979-04-13,
1979-04-14,
1979-04-15,
1979-04-16,
1979-04-17,
1979-04-18,
1979-04-19,
1979-04-20,
1979-04-21,
1979-04-22,
1979-04-23,
1979-04-24,
1979-04-25,
1979-04-26,
1979-04-27,
1979-04-28,
1979-04-29,
1979-04-30,
1979-05-01,
1979-05-02,
1979-05-03,
1979-05-04,
1979-05-05,
1979-05-06,
1979-05-07,
1979-05-08,
1979-05-09,
1979-05-10,
1979-05-11,
1979-05-12,
1979-05-13,
1979-05-14,
1979-05-15,
1979-05-16,
1979-05-17,
1979-05-18,
1979-05-19,
1979-05-20,
1979-05-21,
1979-05-22,
1979-05-23,
1979-05-24,
1979-05-25,
1979-05-26,
1979-05-27,
1979-05-28,
1979-05-29,
1979-05-30,
1979-05-31,
1979-06-01,
1979-06-02,
1979-06-03,
1979-06-04,
1979-06-05,
1979-06-06,
1979-06-07,
1979-06-08,
1979-06-09,
1979-06-10,
1979-06-11,
1979-06-12,
1979-06-13,
1979-06-14,
1979-06-15,
1979-06-16,
1979-06-17,
1979-06-18,
1979-06-19,
1979-06-20,
1979-06-21,
1979-06-22,
1979-06-23,
1979-06-24,
1979-06-25,
1979-06-26,
1979-06-27,
1979-06-28,
1979-06-29,
1979-06-30,
1979-07-01,
1979-07-02,
1979-07-03,
1979-07-04,
1979-07-05,
1979-07-06,
1979-07-07,
1979-07-08,
1979-07-09,
1979-07-10,
1979-07-11,
1979-07-12,
1979-07-13,
1979-07-14,
1979-07-15,
1979-07-16,
1979-07-17,
1979-07-18,
1979-07-19,
1979-07-20,
1979-07-21,
1979-07-22,
1979-07-23,
1979-07-24,
1979-07-25,
1979-07-26,
1979-07-27,
1979-07-28,
1979-07-29,
1979-07-30,
1979-07-31,
1979-08-01,
1979-08-02,
1979-08-03,
1979-08-04,
1979-08-05,
1979-08-06,
1979-08-07,
1979-08-08,
1979-08-09,
1979-08-10,
1979-08-11,
1979-08-12,
1979-08-13,
1979-08-14,
1979-08-15,
1979-08-16,
1979-08-17,
1979-08-18,
1979-08-19,
1979-08-20,
1979-08-21,
1979-08-22,
1979-08-23,
1979-08-24,
1979-08-25,
1979-08-26,
1979-08-27,
1979-08-28,
1979-08-29,
1979-08-30,
1979-08-31,
1979-09-01,
1979-09-02,
1979-09-03,
1979-09-04,
1979-09-05,
1979-09-06,
1979-09-07,
1979-09-08,
1979-09-09,
1979-09-10,
1979-09-11,
1979-09-12,
1979-09-13,
1979-09-14,
1979-09-15,
1979-09-16,
1979-09-17,
1979-09-18,
1979-09-19,
1979-09-20,
1979-09-21,
1979-09-22,
1979-09-23,
1979-09-24,
1979-09-25,
1979-09-26,
1979-09-27,
1979-09-28,
1979-09-29,
1979-09-30,
1979-10-01,4879.2002
1979-10-02,4879.1001
1979-10-03,4879.0
1979-10-04,4878.8999
1979-10-05,4878.7998
1979-10-06,4878.7002
1979-10-07,4878.7002
1979-10-08,4878.6001
1979-10-09,4878.6001
1979-10-10,4878.5
1979-10-11,4878.3999
1979-10-12,4878.3999
1979-10-13,4878.2998
1979-10-14,4878.2002
1979-10-15,4878.2002
1979-10-16,4878.2002
1979-10-17,4878.2002
1979-10-18,4878.3999
1979-10-19,4878.7998
1979-10-20,4878.8999
1979-10-21,4879.0
1979-10-22,4879.0
1979-10-23,4879.0
1979-10-24,4879.0
1979-10-25,4879.0
1979-10-26,4879.0
1979-10-27,4879.0
1979-10-28,4879.0
1979-10-29,4879.0
1979-10-30,4879.0
1979-10-31,4879.0
1979-11-01,4879.1001
1979-11-02,4879.1001
1979-11-03,4879.1001
1979-11-04,4879.2002
1979-11-05,4879.2998
1979-11-06,4879.2998
1979-11-07,4879.8999
1979-11-08,4879.3999
1979-11-09,4879.3999
1979-11-10,4879.5
1979-11-11,4879.5
1979-11-12,4879.5
1979-11-13,4879.5
1979-11-14,4879.6001
1979-11-15,4879.6001
1979-11-16,4879.6001
1979-11-17,4879.7002
1979-11-18,4879.7002
1979-11-19,4879.7002
1979-11-20,4879.7998
1979-11-21,4879.7998
1979-11-22,4879.7998
1979-11-23,4879.7998
1979-11-24,4879.7998
1979-11-25,4879.8999
1979-11-26,4879.8999
1979-11-27,4879.8999
1979-11-28,4879.8999
1979-11-29,4880.0
1979-11-30,4880.0
1979-12-01,4880.0
1979-12-02,4880.1001
1979-12-03,4880.1001
1979-12-04,4880.1001
1979-12-05,4880.1001
1979-12-06,4880.2002
1979-12-07,4880.2002
1979-12-08,4880.2002
1979-12-09,4880.2002
1979-12-10,4880.2998
1979-12-11,4880.2998
1979-12-12,4880.2998
1979-12-13,4880.2998
1979-12-14,4880.2998
1979-12-15,4880.3999
1979-12-16,4880.3999
1979-12-17,4880.3999
1979-12-18,4880.3999
1979-12-19,4880.5
1979-12-20,4880.5
1979-12-21,4880.5
1979-12-22,4880.5
1979-12-23,4880.6001
1979-12-24,4880.6001
1979-12-25,4880.6001
1979-12-26,4880.6001
1979-12-27,4880.6001
1979-12-28,4880.6001
1979-12-29,4880.6001
1979-12-30,4880.7002
1979-12-31,4880.7002
1980-01-01,4880.7002
1980-01-02,4880.7002
1980-01-03,4880.7002
1980-01-04,4880.7998
1980-01-05,4880.7998
1980-01-06,4880.7998
1980-01-07,4880.8999
1980-01-08,4880.8999
1980-01-09,4880.8999
1980-01-10,4881.0
1980-01-11,4881.1001
1980-01-12,4881.2998
1980-01-13,4882.8999
1980-01-14,4883.7998
1980-01-15,4884.1001
1980-01-16,4884.3999
1980-01-17,4884.6001
1980-01-18,4884.6001
1980-01-19,4884.6001
1980-01-20,4884.7002
1980-01-21,4884.7002
1980-01-22,4884.7002
1980-01-23,4884.7002
1980-01-24,4884.7002
1980-01-25,4884.6001
1980-01-26,4884.6001
1980-01-27,4884.6001
1980-01-28,4884.6001
1980-01-29,4884.5
1980-01-30,4884.5
1980-01-31,4884.3999
1980-02-01,4884.2998
1980-02-02,4884.2002
1980-02-03,4884.1001
1980-02-04,4884.0
1980-02-05,4884.0
1980-02-06,4883.8999
1980-02-07,4883.7998
1980-02-08,4883.7002
1980-02-09,4883.6001
1980-02-10,4883.5
1980-02-11,4883.5
1980-02-12,4883.3999
1980-02-13,4883.3999
1980-02-14,4883.2998
1980-02-15,4883.2998
1980-02-16,4883.2998
1980-02-17,4883.3999
1980-02-18,4883.7002
1980-02-19,4884.2998
1980-02-20,4884.8999
1980-02-21,4885.2002
1980-02-22,4885.3999
1980-02-23,4885.6001
1980-02-24,4885.7002
1980-02-25,4885.7002
1980-02-26,4885.7998
1980-02-27,4885.8999
1980-02-28,4886.1001
1980-02-29,4886.2002
1980-03-01,4886.3999
1980-03-02,4886.6001
1980-03-03,4886.7998
1980-03-04,4887.1001
1980-03-05,4887.3999
1980-03-06,4887.8999
1980-03-07,4887.8999
1980-03-08,4887.8999
1980-03-09,4887.8999
1980-03-10,4887.8999
1980-03-11,4887.8999
1980-03-12,4887.8999
1980-03-13,4887.8999
1980-03-14,4887.8999
1980-03-15,4887.8999
1980-03-16,4887.8999
1980-03-17,4887.8999
1980-03-18,4887.8999
1980-03-19,4887.8999
1980-03-20,4887.8999
1980-03-21,4887.8999
1980-03-22,4887.8999
1980-03-23,4887.8999
1980-03-24,4887.7998
1980-03-25,4887.7998
1980-03-26,4887.7998
1980-03-27,4887.7998
1980-03-28,4887.7002
1980-03-29,4887.7002
1980-03-30,4887.7002
1980-03-31,4887.7002
1980-04-01,4887.6001
1980-04-02,4887.6001
1980-04-03,4887.7002
1980-04-04,4887.7998
1980-04-05,4887.7998
1980-04-06,4887.7998
1980-04-07,4887.5
1980-04-08,4887.1001
1980-04-09,4886.7002
1980-04-10,4886.2998
1980-04-11,4885.2998
1980-04-12,4885.2998
1980-04-13,4884.8999
1980-04-14,4884.3999
1980-04-15,4884.1001
1980-04-16,4883.7998
1980-04-17,4883.6001
1980-04-18,4883.7002
1980-04-19,4883.8999
1980-04-20,4884.1001
1980-04-21,4884.6001
1980-04-22,4885.0
1980-04-23,4885.5
1980-04-24,4885.8999
1980-04-25,4886.2998
1980-04-26,4886.7998
1980-04-27,4887.2002
1980-04-28,4887.7998
1980-04-29,4888.5
1980-04-30,4889.2998
1980-05-01,4890.1001
1980-05-02,4890.7998
1980-05-03,4891.2998
1980-05-04,4891.7998
1980-05-05,4892.3999
1980-05-06,4892.8999
1980-05-07,4893.5
1980-05-08,4894.2002
1980-05-09,4895.2998
1980-05-10,4896.0
1980-05-11,4896.6001
1980-05-12,4896.8999
1980-05-13,4897.1001
1980-05-14,4897.1001
1980-05-15,4897.5
1980-05-16,4898.1001
1980-05-17,4898.5
1980-05-18,4898.7002
1980-05-19,4899.0
1980-05-20,4899.1001
1980-05-21,4899.2002
1980-05-22,4899.3999
1980-05-23,4899.3999
1980-05-24,4899.3999
1980-05-25,4899.3999
1980-05-26,4899.2998
1980-05-27,4899.1001
1980-05-28,4899.2002
1980-05-29,4899.2998
1980-05-30,4899.5
1980-05-31,4899.7998
1980-06-01,4900.0
1980-06-02,4900.0
1980-06-03,4900.0
1980-06-04,4900.0
1980-06-05,4900.0
1980-06-06,4900.0
1980-06-07,4900.0
1980-06-08,4900.0
1980-06-09,4900.0
1980-06-10,4900.0
1980-06-11,4900.0
1980-06-12,4900.0
1980-06-13,4900.0
1980-06-14,4900.0
1980-06-15,4900.0
1980-06-16,4900.0
1980-06-17,4900.0
1980-06-18,4900.0
1980-06-19,4900.0
1980-06-20,4900.0
1980-06-21,4900.0
1980-06-22,4900.0
1980-06-23,4900.0
1980-06-24,4900.0
1980-06-25,4900.0
1980-06-26,4900.0
1980-06-27,4900.0
1980-06-28,4900.0
1980-06-29,4900.0
1980-06-30,4899.8999
1980-07-01,4899.7998
1980-07-02,4899.7998
1980-07-03,4899.7998
1980-07-04,4899.7002
1980-07-05,4899.7002
1980-07-06,4899.7002
1980-07-07,4899.7002
1980-07-08,4899.6001
1980-07-09,4899.5
1980-07-10,4899.3999
1980-07-11,4899.2002
1980-07-12,4898.8999
1980-07-13,4898.7002
1980-07-14,4898.5
1980-07-15,4898.2998
1980-07-16,4898.1001
1980-07-17,4897.8999
1980-07-18,4897.7002
1980-07-19,4897.5
1980-07-20,4897.2998
1980-07-21,4897.1001
1980-07-22,4896.8999
1980-07-23,4896.7002
1980-07-24,4896.3999
1980-07-25,4896.2002
1980-07-26,4896.0
1980-07-27,4895.7998
1980-07-28,4895.6001
1980-07-29,4895.2998
1980-07-30,4895.1001
1980-07-31,4894.8999
1980-08-01,4894.7002
1980-08-02,4894.5
1980-08-03,4894.2998
1980-08-04,4894.1001
1980-08-05,4893.7998
1980-08-06,4893.6001
1980-08-07,4893.2998
1980-08-08,4893.1001
1980-08-09,4892.7998
1980-08-10,4892.5
1980-08-11,4892.2002
1980-08-12,4892.0
1980-08-13,4891.7002
1980-08-14,4891.3999
1980-08-15,4891.2002
1980-08-16,4890.8999
1980-08-17,4890.6001
1980-08-18,4890.3999
1980-08-19,4890.2002
1980-08-20,4890.0
1980-08-21,4889.7998
1980-08-22,4889.6001
1980-08-23,4889.3999
1980-08-24,4889.2002
1980-08-25,4889.0
1980-08-26,4888.8999
1980-08-27,4888.7002
1980-08-28,4888.5
1980-08-29,4888.2998
1980-08-30,4888.1001
1980-08-31,4887.8999
1980-09-01,4887.7002
1980-09-02,4887.6001
1980-09-03,4887.5
1980-09-04,4887.2998
1980-09-05,4887.1001
1980-09-06,4886.8999
1980-09-07,4886.7998
1980-09-08,4886.7998
1980-09-09,4886.7002
1980-09-10,4886.7002
1980-09-11,4886.7002
1980-09-12,4886.6001
1980-09-13,4886.6001
1980-09-14,4886.6001
1980-09-15,4886.5
1980-09-16,4886.3999
1980-09-17,4886.3999
1980-09-18,4886.2998
1980-09-19,4886.2002
1980-09-20,4886.1001
1980-09-21,4886.0
1980-09-22,4885.8999
1980-09-23,4885.7998
1980-09-24,4885.7002
1980-09-25,4885.7002
1980-09-26,4885.6001
1980-09-27,4885.5
1980-09-28,4885.5
1980-09-29,4885.3999
1980-09-30,4885.2998
1980-10-01,4885.2
1980-10-02,4885.2
1980-10-03,4885.1
1980-10-04,4885.0
1980-10-05,4884.9
1980-10-06,4884.8
1980-10-07,4884.7
1980-10-08,4884.6
1980-10-09,4884.5
1980-10-10,4884.4
1980-10-11,4884.3
1980-10-12,4884.3
1980-10-13,4884.2
1980-10-14,4884.2
1980-10-15,4884.3
1980-10-16,4884.3
1980-10-17,4884.3
1980-10-18,4884.3
1980-10-19,4884.3
1980-10-20,4884.3
1980-10-21,4884.3
1980-10-22,4884.3
1980-10-23,4884.3
1980-10-24,4884.3
1980-10-25,4884.2
1980-10-26,4884.2
1980-10-27,4884.2
1980-10-28,4884.2
1980-10-29,4884.2
1980-10-30,4884.2
1980-10-31,4884.3
1980-11-01,4884.2
1980-11-02,4884.2
1980-11-03,4884.2
1980-11-04,4884.3
1980-11-05,4884.3
1980-11-06,4884.3
1980-11-07,4884.3
1980-11-08,4884.3
1980-11-09,4884.3
1980-11-10,4884.3
1980-11-11,4884.2
1980-11-12,4884.1
1980-11-13,4884.1
1980-11-14,4884.0
1980-11-15,4884.0
1980-11-16,4883.9
1980-11-17,4883.8
1980-11-18,4883.8
1980-11-19,4883.7
1980-11-20,4883.6
1980-11-21,4883.4
1980-11-22,4883.3
1980-11-23,4883.2
1980-11-24,4883.1
1980-11-25,4883.0
1980-11-26,4882.9
1980-11-27,4882.8
1980-11-28,4882.6
1980-11-29,4882.5
1980-11-30,4882.4
1980-12-01,4882.2
1980-12-02,4882.2
1980-12-03,4882.1
1980-12-04,4882.1
1980-12-05,4882.0
1980-12-06,4881.8
1980-12-07,4881.7
1980-12-08,4881.6
1980-12-09,4881.4
1980-12-10,4881.3
1980-12-11,4881.2
1980-12-12,4881.0
1980-12-13,4880.9
1980-12-14,4880.7
1980-12-15,4880.6
1980-12-16,4880.5
1980-12-17,4880.4
1980-12-18,4880.2
1980-12-19,4880.1
1980-12-20,4879.9
1980-12-21,4879.8
1980-12-22,4879.7
1980-12-23,4879.6
1980-12-24,4879.5
1980-12-25,4879.4
1980-12-26,4879.3
1980-12-27,4879.1
1980-12-28,4879.0
1980-12-29,4878.9
1980-12-30,4878.9
1980-12-31,4878.8
1981-01-01,4878.8
1981-01-02,4878.8
1981-01-03,4878.9
1981-01-04,4879.0
1981-01-05,4879.0
1981-01-06,4879.0
1981-01-07,4879.0
1981-01-08,4879.0
1981-01-09,4879.0
1981-01-10,4879.0
1981-01-11,4879.0
1981-01-12,4879.0
1981-01-13,4879.1
1981-01-14,4879.1
1981-01-15,4879.1
1981-01-16,4879.1
1981-01-17,4879.2
1981-01-18,4879.2
1981-01-19,4879.2
1981-01-20,4879.1
1981-01-21,4879.3
1981-01-22,4879.3
1981-01-23,4879.3
1981-01-24,4879.3
1981-01-25,4879.4
1981-01-26,4879.4
1981-01-27,4879.4
1981-01-28,4879.4
1981-01-29,4879.5
1981-01-30,4879.7
1981-01-31,4879.8
1981-02-01,4879.9
1981-02-02,4879.9
1981-02-03,4880.0
1981-02-04,4880.0
1981-02-05,4880.0
1981-02-06,4880.0
1981-02-07,4880.0
1981-02-08,4880.1
1981-02-09,4880.2
1981-02-10,4880.2
1981-02-11,4880.2
1981-02-12,4880.2
1981-02-13,4880.2
1981-02-14,4880.3
1981-02-15,4880.3
1981-02-16,4880.4
1981-02-17,4880.4
1981-02-18,4880.5
1981-02-19,4880.5
1981-02-20,4880.5
1981-02-21,4880.5
1981-02-22,4880.6
1981-02-23,4880.6
1981-02-24,4880.7
1981-02-25,4880.8
1981-02-26,4880.9
1981-02-27,4881.0
1981-02-28,4881.0
1981-03-01,4881.1
1981-03-02,4881.2
1981-03-03,4881.3
1981-03-04,4881.3
1981-03-05,4881.4
1981-03-06,4881.4
1981-03-07,4881.4
1981-03-08,4881.5
1981-03-09,4881.5
1981-03-10,4881.6
1981-03-11,4881.6
1981-03-12,4881.7
1981-03-13,4881.7
1981-03-14,4881.8
1981-03-15,4881.8
1981-03-16,4881.9
1981-03-17,4881.9
1981-03-18,4881.9
1981-03-19,4881.9
1981-03-20,4882.1
1981-03-21,4882.3
1981-03-22,4882.3
1981-03-23,4882.3
1981-03-24,4882.3
1981-03-25,4882.4
1981-03-26,4882.5
1981-03-27,4882.6
1981-03-28,4882.7
1981-03-29,4882.8
1981-03-30,4882.8
1981-03-31,4882.9
1981-04-01,4883.0
1981-04-02,4883.1
1981-04-03,4883.1
1981-04-04,4883.2
1981-04-05,4883.2
1981-04-06,4883.2
1981-04-07,4883.3
1981-04-08,4883.3
1981-04-09,4883.4
1981-04-10,4883.5
1981-04-11,4883.6
1981-04-12,4883.7
1981-04-13,4883.8
1981-04-14,4883.9
1981-04-15,4884.0
1981-04-16,4884.1
1981-04-17,4884.2
1981-04-18,4884.3
1981-04-19,4884.5
1981-04-20,4884.6
1981-04-21,4884.8
1981-04-22,4885.0
1981-04-23,4885.1
1981-04-24,4885.3
1981-04-25,4885.4
1981-04-26,4885.6
1981-04-27,4885.7
1981-04-28,4885.8
1981-04-29,4886.0
1981-04-30,4886.1
1981-05-01,4886.1
1981-05-02,4886.2
1981-05-03,4886.2
1981-05-04,4886.3
1981-05-05,4886.4
1981-05-06,4886.5
1981-05-07,4886.5
1981-05-08,4886.6
1981-05-09,4886.6
1981-05-10,4886.6
1981-05-11,4886.5
1981-05-12,4886.5
1981-05-13,4886.5
1981-05-14,4886.5
1981-05-15,4886.5
1981-05-16,4886.5
1981-05-17,4886.6
1981-05-18,4886.7
1981-05-19,4886.8
1981-05-20,4886.9
1981-05-21,4887.6
1981-05-22,4888.3
1981-05-23,4888.8
1981-05-24,4889.2
1981-05-25,4889.7
1981-05-26,4890.2
1981-05-27,4890.6
1981-05-28,4891.0
1981-05-29,4891.3
1981-05-30,4891.6
1981-05-31,4891.9
1981-06-01,4892.1
1981-06-02,4892.4
1981-06-03,4892.6
1981-06-04,4892.7
1981-06-05,4892.9
1981-06-06,4893.0
1981-06-07,4893.0
1981-06-08,4893.1
1981-06-09,4893.1
1981-06-10,4893.1
1981-06-11,4893.1
1981-06-12,4893.1
1981-06-13,4893.0
1981-06-14,4893.0
1981-06-15,4892.9
1981-06-16,4892.8
1981-06-17,4892.7
1981-06-18,4892.6
1981-06-19,4892.5
1981-06-20,4892.4
1981-06-21,4892.2
1981-06-22,4892.1
1981-06-23,4892.0
1981-06-24,4891.8
1981-06-25,4891.6
1981-06-26,4891.5
1981-06-27,4891.3
1981-06-28,4891.1
1981-06-29,4891.0
1981-06-30,4890.8
1981-07-01,4890.6
1981-07-02,4890.4
1981-07-03,4890.2
1981-07-04,4890.0
1981-07-05,4889.8
1981-07-06,4889.6
1981-07-07,4889.4
1981-07-08,4889.3
1981-07-09,4889.1